Temperature
18 18 18 18 18 18 18 18 18 17 17 17 17 17 18 18 18 18 17 17 17 17 17 17 17 17 17 16 16 16 16 16 16 16 16 16 16 15 15 15 15 15 15
18 18 18 18 18 18 18 18 18 17 17 17 17 17 17 18 17 17 17 17 17 17 17 17 17 17 16 16 16 16 16 16 16 16 16 16 16 15 15 15 15 15 15
18 18 18 18 18 18 18 18 18 17 17 17 17 17 17 17 17 17 17 17 17 17 17 17 17 16 16 16 16 16 16 16 16 16 16 16 16 16 15 15 15 15 15
18 18 18 18 18 18 18 18 18 18 17 17 17 17 17 17 17 17 17 17 17 17 17 17 16 16 16 16 16 16 16 16 16 16 16 16 16 16 15 15 15 15 15
18 18 18 18 18 18 18 18 18 18 18 17 17 17 17 17 17 17 17 17 17 17 17 16 16 16 16 16 16 15 15 15 15 15 15 15 15 15 15 15 15 15 15
18 18 18 18 18 18 18 18 18 18 17 17 17 17 17 17 17 17 17 17 16 16 16 16 16 16 16 16 15 15 15 15 15 15 15 15 15 15 15 15 15 15 15
18 18 18 18 18 18 18 18 18 17 17 17 17 16 16 16 16 16 16 16 16 16 16 16 16 16 16 15 15 15 15 15 15 15 15 15 15 15 15 15 15 15 14
18 18 18 18 18 18 18 18 17 17 17 17 17 16 16 16 16 16 16 16 16 16 16 16 16 16 16 15 15 15 15 15 15 15 15 15 15 15 15 14 14 14 14
18 18 18 18 18 18 18 18 17 17 17 17 16 16 16 16 15 15 15 15 15 15 15 15 15 15 15 15 15 15 15 15 15 15 15 15 15 14 14 14 14 14 14
18 18 18 18 18 18 18 17 17 17 17 17 16 16 16 16 15 15 15 15 15 15 15 15 15 15 15 15 15 15 15 15 14 14 14 14 14 14 14 14 14 14 14
18 18 18 18 18 17 17 17 17 17 17 16 16 16 16 16 16 15 14 14 15 15 14 14 14 14 14 15 15 14 14 14 14 14 14 14 14 14 14 14 14 13 13
18 18 18 18 17 17 17 17 17 17 17 16 16 16 16 16 16 15 15 14 14 14 14 14 14 14 14 14 14 14 14 14 14 14 14 14 14 14 14 14 13 13 13
18 18 17 17 17 17 17 17 17 17 16 16 16 16 16 16 16 15 15 15 14 14 14 14 14 14 14 14 14 14 14 14 14 14 14 14 14 13 13 13 13 13 13
17 17 17 17 17 17 17 17 17 16 16 16 16 16 16 16 15 15 15 15 14 14 14 14 14 13 13 13 13 13 13 13 13 13 13 13 13 13 13 13 13 13 12
17 17 17 17 17 17 17 17 17 16 16 16 16 16 16 15 15 15 15 15 15 14 13 13 13 13 13 13 13 13 13 13 13 13 13 13 13 12 12 12 12 12 12
17 17 17 17 17 17 17 17 16 16 16 16 16 16 16 15 15 15 15 15 15 14 14 13 13 13 13 13 13 13 13 13 12 12 12 12 12 12 12 12 12 12 12
17 17 17 17 17 17 17 17 16 16 16 16 16 15 15 15 15 15 15 14 14 14 14 13 13 13 13 13 12 12 12 12 12 12 12 12 12 12 12 12 11 11 11
17 17 17 17 17 17 17 17 16 16 16 16 16 15 15 15 15 15 15 14 14 14 14 14 13 13 13 12 12 12 12 12 12 12 12 12 11 11 11 11 11 11 11
17 17 17 17 17 17 16 16 16 16 16 16 15 15 15 15 15 15 15 14 14 14 14 14 13 13 13 12 12 12 12 12 12 11 11 11 11 11 11 11 11 11 10
17 17 17 16 16 16 16 16 16 16 16 15 15 15 15 15 15 15 14 14 14 14 14 13 13 13 13 12 12 12 12 11 11 11 11 11 11 11 11 10 10 10 10
17 17 17 16 16 16 16 16 15 15 15 15 15 15 15 15 15 14 14 14 14 14 13 13 13 13 12 12 12 12 11 11 11 11 11 11 11 10 10 10 10 10 10
17 17 17 16 16 16 16 15 15 15 15 15 15 15 14 14 14 14 14 14 13 13 13 13 13 12 12 12 12 11 11 11 11 11 10 10 10 10 10 10 10 10 10
17 17 17 16 16 15 15 15 15 15 14 14 14 14 14 14 14 14 14 13 13 13 13 13 13 12 12 12 11 11 11 11 11 11 10 10 10 10 10 10 10 9 9
17 17 17 16 16 15 15 15 15 14 14 14 14 14 13 13 13 13 13 13 13 13 12 12 12 12 12 12 11 11 11 11 11 10 10 10 10 10 10 10 9 9 9
17 17 16 16 16 15 15 15 14 14 14 14 13 13 13 13 13 13 13 12 12 12 12 12 12 12 11 11 11 11 11 11 10 10 10 10 10 10 10 10 9 9 9
17 16 16 16 15 15 15 14 14 14 14 13 13 13 13 13 12 12 12 12 12 12 12 12 11 11 11 11 11 11 11 10 10 10 10 10 10 10 9 10 9 9 9
Wind_Speed
1 1 1 1 1 1 1 2 2 2 2 2 1 1 1 1 2 2 3 5 7 8 9 9 9 9 9 9 9 9 9 9 9 9 9 9 8 8 8 8 8 8 8
2 1 1 1 1 1 1 1 2 2 1 1 1 1 1 1 1 2 2 4 6 7 7 8 8 8 9 10 10 10 10 9 9 9 9 10 10 10 10 10 9 9 9
2 2 1 1 1 1 2 2 2 2 2 2 2 1 1 1 0 1 1 2 2 4 6 7 6 7 8 8 9 9 9 9 9 9 9 9 9 10 11 11 11 10 10
3 3 1 0 0 2 2 2 2 2 1 1 1 1 1 1 1 0 0 1 2 3 4 5 5 5 6 7 8 8 8 8 8 8 9 9 9 9 8 9 10 10 9
3 3 2 1 1 2 2 2 2 3 2 2 2 2 2 1 1 1 1 0 1 1 2 2 3 4 5 6 7 8 8 8 8 8 9 9 9 9 9 8 8 9 8
2 3 2 1 2 2 1 2 2 2 2 2 3 3 3 3 3 2 2 2 1 0 0 0 1 2 3 5 5 6 7 8 8 8 8 8 9 9 9 8 7 7 7
2 3 2 1 2 2 2 2 2 3 2 3 3 2 3 4 4 3 2 2 3 3 3 2 2 2 2 2 1 1 2 3 4 6 7 7 8 9 10 9 8 8 7
1 2 2 2 1 2 2 2 3 2 2 2 2 2 1 2 3 4 3 3 3 3 3 3 3 3 2 2 3 2 2 1 1 2 4 5 6 6 6 7 8 8 7
1 2 2 2 2 2 2 2 3 3 2 1 1 2 2 2 0 2 3 3 3 3 3 4 4 4 3 3 3 3 3 3 2 0 1 2 3 5 5 5 5 6 7
1 1 2 2 2 2 2 2 2 2 3 2 1 1 1 2 2 1 1 3 3 3 3 3 3 3 3 3 4 5 5 6 4 3 2 1 1 3 5 6 6 6 6
1 1 2 2 1 1 1 1 1 1 2 2 2 1 1 1 1 2 1 0 2 2 2 2 3 4 4 4 4 5 6 6 5 4 4 3 2 2 2 3 4 5 5
1 2 2 2 1 1 1 1 1 1 1 2 2 1 2 2 2 2 2 1 0 1 2 2 3 3 4 4 5 6 7 6 6 7 6 6 6 5 3 2 2 3 3
0 1 1 1 1 1 1 1 2 1 1 1 1 1 1 1 2 3 3 2 1 0 1 1 2 3 4 4 5 6 7 8 8 8 8 9 8 8 7 6 6 5 5
1 1 1 1 1 1 2 2 1 1 1 1 1 1 1 1 2 3 3 3 2 1 1 1 1 3 3 4 5 6 7 8 9 9 9 9 9 9 9 8 8 7 6
1 1 2 2 2 2 2 2 1 1 2 1 1 1 1 1 2 2 3 4 3 2 1 0 0 1 2 3 4 5 6 7 8 9 9 9 8 9 9 9 8 8 8
1 2 2 2 2 2 2 2 1 1 2 1 1 1 1 1 2 2 3 2 2 3 2 1 1 0 1 3 4 4 5 6 8 8 8 9 9 9 9 8 8 8 8
2 2 2 2 2 2 2 2 2 1 2 1 1 2 1 1 2 2 2 2 2 2 3 1 1 1 2 2 3 4 4 5 5 6 7 7 8 8 8 8 8 8 8
2 3 3 3 2 2 2 2 2 2 2 1 1 1 1 1 2 2 2 2 2 2 3 3 2 1 1 1 2 2 3 3 4 5 6 6 7 7 7 7 7 7 8
3 3 3 3 2 2 2 2 2 2 2 1 1 1 1 2 2 1 2 2 2 3 3 4 2 1 1 1 2 2 2 2 2 3 4 5 5 6 6 6 6 6 6
4 3 3 2 2 2 2 2 2 2 2 2 2 2 2 2 2 2 2 2 3 4 4 4 3 2 1 1 2 2 1 1 1 2 3 3 3 4 4 4 4 4 4
4 3 3 2 2 2 1 2 2 2 2 2 2 2 2 2 3 2 3 3 4 4 4 4 3 2 2 2 2 1 1 0 1 1 1 2 2 2 2 1 1 1 1
3 3 3 2 2 1 2 3 3 2 2 2 2 2 2 3 3 4 4 4 5 5 5 4 3 3 3 3 2 3 2 1 0 0 0 1 1 0 1 0 1 1 2
3 3 2 2 2 1 2 3 4 3 3 2 2 1 2 2 3 3 4 5 4 3 4 4 4 4 4 5 4 4 3 2 2 1 1 0 0 1 2 2 2 2 3
4 3 3 3 2 1 2 3 4 3 3 2 2 1 1 1 2 3 3 3 2 1 2 3 3 4 4 5 6 5 4 2 1 1 2 1 1 2 2 3 4 4 5
4 3 3 3 2 1 2 3 4 3 2 2 2 1 1 1 2 4 4 3 2 1 1 1 2 2 3 6 7 4 4 3 1 1 2 2 1 2 2 3 5 6 7
4 4 3 2 3 2 2 3 4 2 2 1 1 1 0 1 2 3 4 3 2 1 0 1 1 1 1 3 7 6 5 4 2 2 3 3 2 1 2 2 3 3 5
Wind_Direction
103 106 100 98 89 97 101 90 82 64 61 65 109 142 162 179 196 197 209 207 210 209 204 204 205 205 208 210 210 212 214 213 214 217 216 213 214 212 212 215 218 218 219
162 139 112 112 132 146 133 120 107 83 63 67 66 96 164 196 230 210 226 231 226 220 216 214 213 214 217 219 216 217 218 219 221 222 221 220 223 222 221 221 221 220 223
163 146 124 122 164 152 127 113 101 90 87 79 64 60 75 89 151 204 225 239 240 230 223 217 217 218 221 222 220 221 220 220 221 224 223 222 227 228 227 227 226 224 225
164 146 133 150 176 130 125 124 120 103 91 88 66 32 52 67 84 79 209 232 234 245 240 220 222 226 229 228 227 227 223 223 225 226 223 221 222 223 224 227 223 222 222
159 152 145 164 135 122 130 145 126 131 122 101 83 54 37 35 40 52 50 1 228 235 231 230 240 241 243 241 236 235 228 225 227 228 227 226 224 225 224 222 221 220 220
140 134 124 124 123 123 121 127 130 123 129 118 87 64 43 35 41 41 33 37 48 82 73 264 282 294 280 259 246 239 236 230 229 230 231 228 226 224 222 218 213 209 210
143 137 133 132 133 146 156 144 132 126 122 120 97 64 40 43 46 40 43 49 44 45 52 48 37 16 1 359 353 276 262 236 227 226 226 226 227 224 219 214 208 210 210
149 140 142 146 158 158 154 153 148 141 163 156 132 120 55 28 34 33 43 53 42 46 48 43 46 45 41 27 28 19 344 1 218 222 222 223 220 215 214 211 213 213 208
88 116 153 160 167 164 174 182 171 163 172 189 172 159 162 188 37 25 36 42 38 38 36 40 42 39 42 34 21 27 26 31 34 323 232 222 210 205 204 204 207 208 207
53 120 143 149 150 152 171 198 173 169 163 185 192 189 175 153 153 139 28 32 35 35 30 33 35 37 42 42 45 50 51 48 47 49 60 87 158 202 205 207 206 209 207
18 62 121 120 125 136 146 158 157 158 160 169 174 161 122 96 129 157 183 43 36 22 23 20 25 32 38 42 47 56 64 58 55 57 62 66 67 70 161 186 192 197 194
11 27 96 98 103 107 123 143 142 149 152 154 166 172 164 163 170 164 171 167 95 14 19 24 25 26 37 41 55 67 69 64 57 58 62 65 66 65 74 101 124 142 155
343 341 80 91 88 94 111 123 116 130 163 159 175 195 188 179 159 154 150 154 147 58 29 33 23 27 43 47 55 66 65 62 57 59 65 69 68 68 69 73 80 87 94
210 179 126 106 98 94 94 101 100 114 110 128 133 130 154 167 153 155 155 151 139 106 50 13 13 30 48 57 56 64 64 63 63 65 70 72 72 72 73 74 76 78 82
169 136 128 114 97 92 92 98 87 82 96 98 101 106 114 135 148 154 154 160 157 163 199 277 7 14 66 73 66 69 69 69 69 68 69 70 70 71 71 72 75 76 78
127 125 118 114 98 81 81 87 92 84 92 73 86 96 93 115 130 138 155 162 162 159 162 173 192 68 90 96 81 78 76 76 72 71 70 69 70 70 70 71 72 74 75
129 129 123 113 101 82 76 92 96 93 94 71 70 99 94 111 133 136 144 146 137 139 151 142 108 85 99 91 74 80 80 74 71 70 74 72 71 71 70 69 71 73 75
112 116 115 107 99 83 76 95 101 94 100 86 67 85 84 113 109 132 141 143 145 143 151 152 134 114 106 116 96 84 79 80 79 70 70 70 70 71 68 68 71 73 74
118 115 117 119 114 101 91 90 98 91 85 83 88 103 104 110 108 118 132 136 137 129 127 140 137 118 105 113 105 96 81 57 80 72 70 68 71 70 68 66 70 75 74
132 130 128 125 119 110 96 94 97 92 79 68 72 89 106 121 135 140 139 137 128 122 122 127 127 124 124 125 128 125 98 53 53 52 54 58 68 69 64 65 73 78 82
140 136 121 106 101 105 96 110 113 111 99 76 61 67 99 115 128 137 139 144 139 134 135 137 138 137 146 149 164 169 159 117 39 30 44 30 44 47 45 46 62 88 125
139 131 130 133 123 100 107 125 120 122 117 102 76 48 54 76 92 99 111 132 144 150 158 156 166 175 190 189 169 164 158 151 222 40 144 9 61 27 343 329 267 220 209
154 145 144 150 136 124 128 130 122 123 116 103 91 64 56 57 74 92 96 96 105 125 153 165 176 193 193 193 175 172 180 183 200 174 157 242 264 252 260 248 246 232 235
162 167 169 166 155 169 150 143 131 118 107 90 85 93 89 59 74 108 112 98 92 103 169 182 187 203 206 192 187 186 181 170 163 167 174 208 243 246 255 253 252 243 242
170 174 169 166 168 198 173 149 129 119 107 83 55 67 110 127 121 121 119 115 90 22 71 130 187 209 201 187 173 158 161 169 207 215 190 201 232 246 252 251 253 248 246
176 169 167 177 181 192 191 163 146 136 132 123 40 26 55 169 164 148 143 146 158 248 312 28 29 31 169 181 181 185 184 186 195 218 197 194 207 214 257 248 251 252 247
Height
1546 1547 1547 1548 1549 1549 1550 1551 1552 1553 1553 1554 1555 1556 1556 1557 1557 1557 1558 1558 1558 1559 1559 1560 1560 1561 1561 1562 1563 1563 1564 1564 1565 1565 1566 1567 1568 1568 1569 1570 1571 1572 1572
1548 1548 1549 1549 1550 1551 1551 1552 1553 1553 1554 1555 1555 1556 1556 1556 1557 1557 1557 1558 1558 1558 1558 1559 1559 1560 1560 1561 1561 1562 1562 1563 1563 1564 1565 1565 1566 1567 1568 1568 1569 1570 1571
1549 1550 1550 1551 1551 1552 1552 1552 1553 1554 1554 1554 1555 1555 1555 1556 1556 1556 1556 1557 1557 1557 1557 1558 1558 1558 1559 1559 1560 1560 1560 1561 1561 1562 1562 1563 1563 1564 1565 1566 1567 1567 1568
1550 1550 1551 1551 1552 1552 1552 1552 1553 1553 1554 1554 1554 1554 1554 1555 1555 1555 1555 1555 1555 1555 1556 1556 1556 1557 1557 1557 1557 1558 1558 1559 1559 1560 1560 1561 1561 1562 1563 1563 1564 1565 1566
1551 1551 1551 1551 1552 1552 1552 1552 1552 1553 1553 1553 1553 1553 1553 1553 1553 1553 1553 1553 1553 1554 1554 1554 1555 1555 1555 1555 1555 1555 1556 1556 1556 1557 1558 1558 1559 1559 1560 1561 1562 1562 1563
1551 1551 1551 1551 1552 1552 1552 1552 1552 1552 1552 1552 1552 1551 1552 1551 1552 1552 1552 1552 1552 1552 1552 1552 1553 1553 1553 1553 1553 1553 1553 1553 1554 1554 1555 1555 1555 1556 1557 1558 1559 1560 1560
1551 1551 1551 1551 1551 1551 1551 1551 1551 1550 1550 1551 1551 1550 1551 1550 1550 1550 1550 1551 1550 1551 1550 1551 1551 1551 1551 1551 1551 1551 1551 1551 1551 1552 1552 1552 1552 1553 1554 1555 1556 1557 1557
1551 1551 1551 1550 1550 1550 1550 1550 1549 1549 1549 1549 1549 1549 1550 1551 1550 1550 1550 1550 1550 1549 1549 1549 1549 1549 1549 1549 1548 1548 1549 1549 1549 1549 1549 1550 1550 1550 1551 1552 1553 1554 1554
1551 1550 1550 1550 1550 1549 1549 1548 1548 1548 1547 1548 1548 1549 1549 1548 1549 1550 1549 1549 1549 1549 1548 1548 1547 1547 1547 1547 1547 1546 1546 1546 1546 1547 1547 1547 1547 1548 1549 1549 1550 1550 1551
1550 1550 1550 1549 1549 1548 1548 1547 1547 1546 1546 1546 1546 1547 1548 1547 1548 1548 1549 1548 1548 1547 1547 1546 1546 1546 1545 1545 1545 1545 1545 1544 1544 1545 1545 1545 1545 1545 1546 1547 1547 1548 1548
1550 1549 1549 1549 1548 1547 1547 1546 1545 1545 1545 1545 1545 1545 1545 1546 1546 1546 1547 1547 1547 1547 1546 1546 1545 1545 1544 1544 1544 1544 1543 1543 1543 1543 1543 1543 1543 1543 1543 1544 1545 1545 1546
1549 1549 1548 1548 1547 1546 1546 1545 1544 1544 1544 1544 1544 1544 1544 1544 1544 1544 1544 1545 1545 1546 1546 1545 1545 1544 1544 1543 1543 1543 1542 1543 1543 1543 1542 1542 1542 1542 1542 1543 1543 1544 1544
1548 1548 1548 1547 1546 1546 1545 1544 1544 1543 1543 1543 1543 1543 1543 1542 1542 1543 1543 1543 1544 1545 1545 1545 1545 1544 1544 1543 1543 1543 1542 1542 1542 1542 1542 1541 1542 1542 1541 1542 1542 1542 1543
1548 1547 1547 1546 1546 1545 1544 1544 1543 1543 1542 1542 1542 1542 1541 1541 1541 1541 1542 1542 1543 1544 1544 1545 1544 1544 1544 1543 1543 1543 1542 1542 1542 1542 1542 1541 1541 1541 1541 1541 1541 1541 1542
1547 1546 1546 1545 1545 1544 1543 1543 1542 1542 1541 1541 1541 1540 1540 1540 1540 1540 1541 1542 1542 1542 1543 1544 1544 1544 1543 1543 1543 1543 1542 1542 1542 1542 1542 1542 1541 1541 1541 1541 1541 1541 1541
1546 1546 1545 1545 1544 1543 1543 1542 1541 1541 1540 1540 1540 1539 1539 1539 1539 1540 1540 1540 1541 1542 1542 1542 1543 1543 1543 1543 1543 1543 1543 1543 1542 1542 1542 1542 1541 1541 1541 1541 1541 1541 1541
1545 1545 1544 1544 1543 1543 1542 1541 1540 1540 1539 1539 1539 1538 1538 1538 1539 1539 1539 1540 1540 1540 1540 1541 1542 1542 1543 1543 1543 1543 1543 1543 1542 1542 1542 1542 1541 1541 1541 1541 1540 1540 1540
1544 1544 1544 1543 1543 1542 1541 1540 1539 1539 1538 1538 1538 1538 1537 1538 1538 1538 1538 1538 1539 1539 1539 1540 1541 1541 1542 1542 1542 1542 1542 1542 1542 1542 1542 1542 1542 1541 1541 1541 1540 1540 1540
1543 1543 1542 1542 1542 1541 1540 1539 1539 1538 1538 1537 1537 1537 1537 1537 1537 1537 1537 1538 1538 1538 1538 1539 1539 1540 1541 1542 1542 1542 1542 1542 1542 1542 1542 1542 1542 1541 1541 1541 1540 1540 1540
1542 1542 1542 1541 1541 1540 1540 1539 1538 1537 1537 1537 1536 1536 1536 1536 1536 1536 1537 1537 1537 1537 1537 1538 1538 1539 1540 1540 1541 1541 1542 1542 1542 1542 1542 1542 1542 1541 1541 1541 1541 1540 1539
1541 1541 1541 1541 1540 1540 1539 1538 1537 1537 1536 1536 1536 1536 1535 1536 1536 1536 1536 1536 1536 1536 1536 1537 1538 1538 1539 1539 1540 1541 1541 1542 1542 1542 1542 1542 1541 1541 1541 1540 1540 1540 1539
1540 1540 1540 1539 1539 1539 1538 1537 1537 1536 1536 1535 1535 1535 1535 1535 1535 1535 1535 1535 1536 1536 1536 1536 1537 1537 1538 1539 1539 1540 1540 1541 1541 1542 1541 1541 1541 1540 1540 1540 1540 1539 1538
1538 1538 1538 1538 1538 1538 1537 1536 1536 1535 1535 1535 1535 1535 1535 1534 1534 1534 1534 1535 1535 1535 1536 1536 1536 1536 1537 1537 1538 1538 1539 1539 1540 1540 1540 1540 1540 1540 1540 1539 1539 1538 1537
1536 1537 1537 1536 1536 1536 1536 1535 1535 1534 1534 1534 1534 1534 1534 1534 1534 1534 1534 1534 1534 1534 1534 1534 1535 1535 1536 1536 1537 1537 1538 1538 1538 1538 1539 1538 1538 1538 1538 1538 1537 1537 1536
1534 1535 1535 1535 1535 1535 1535 1534 1534 1533 1533 1534 1534 1533 1533 1533 1533 1533 1533 1532 1533 1533 1533 1533 1533 1534 1534 1534 1535 1535 1535 1535 1535 1536 1536 1536 1536 1536 1536 1536 1535 1535 1534
1532 1532 1533 1533 1533 1533 1533 1533 1533 1533 1532 1532 1533 1533 1532 1532 1532 1532 1532 1531 1531 1531 1532 1532 1532 1532 1532 1532 1532 1532 1533 1533 1533 1533 1533 1534 1534 1534 1533 1533 1533 1533 1532